TimeCST,TemperatureF,Dew PointF,Humidity,Sea Level PressureIn,VisibilityMPH,Wind Direction,Wind SpeedMPH,Gust SpeedMPH,PrecipitationIn,Events,Conditions,WindDirDegrees,DateUTC
12:15 AM,30.2,26.6,86,30.11,10.0,Calm,Calm,-,N/A,,Overcast,0,2012-12-28 06:15:00
12:35 AM,30.2,26.6,86,30.09,10.0,East,5.8,-,N/A,,Mostly Cloudy,100,2012-12-28 06:35:00
12:55 AM,30.2,26.6,86,30.10,10.0,East,4.6,-,N/A,,Clear,90,2012-12-28 06:55:00
1:15 AM,28.4,26.6,93,30.09,10.0,ESE,5.8,-,N/A,,Clear,110,2012-12-28 07:15:00
1:35 AM,28.4,26.6,93,30.10,10.0,East,3.5,-,N/A,,Clear,100,2012-12-28 07:35:00
1:55 AM,28.4,26.6,93,30.11,10.0,Calm,Calm,-,N/A,,Mostly Cloudy,0,2012-12-28 07:55:00
2:15 AM,28.4,24.8,86,30.10,7.0,ESE,4.6,-,N/A,,Mostly Cloudy,110,2012-12-28 08:15:00
2:35 AM,28.4,26.6,93,30.09,7.0,ESE,4.6,-,N/A,,Mostly Cloudy,120,2012-12-28 08:35:00
2:55 AM,28.4,26.6,93,30.09,7.0,ESE,5.8,-,N/A,,Overcast,110,2012-12-28 08:55:00
3:15 AM,28.4,26.6,93,30.07,7.0,East,5.8,-,N/A,,Scattered Clouds,90,2012-12-28 09:15:00
3:35 AM,28.4,26.6,93,30.07,7.0,East,5.8,-,N/A,,Clear,100,2012-12-28 09:35:00
3:55 AM,28.4,26.6,93,30.08,7.0,Calm,Calm,-,N/A,,Mostly Cloudy,0,2012-12-28 09:55:00
4:15 AM,30.2,26.6,86,30.06,7.0,ESE,4.6,-,N/A,,Overcast,120,2012-12-28 10:15:00
4:35 AM,30.2,26.6,86,30.05,7.0,East,4.6,-,N/A,,Overcast,100,2012-12-28 10:35:00
4:55 AM,30.2,26.6,86,30.08,7.0,Calm,Calm,-,N/A,,Overcast,0,2012-12-28 10:55:00
5:15 AM,30.2,26.6,86,30.09,7.0,Calm,Calm,-,N/A,,Overcast,0,2012-12-28 11:15:00
5:35 AM,28.4,26.6,93,30.08,5.0,East,3.5,-,N/A,,Mostly Cloudy,100,2012-12-28 11:35:00
5:55 AM,30.2,26.6,86,30.09,5.0,Calm,Calm,-,N/A,,Mostly Cloudy,0,2012-12-28 11:55:00
6:15 AM,30.2,26.6,86,30.08,5.0,SE,3.5,-,N/A,,Overcast,130,2012-12-28 12:15:00
6:35 AM,30.2,26.6,86,30.08,7.0,ESE,5.8,-,N/A,,Overcast,120,2012-12-28 12:35:00
6:55 AM,30.2,26.6,86,30.08,7.0,SE,3.5,-,N/A,,Overcast,130,2012-12-28 12:55:00
7:15 AM,30.2,26.6,86,30.08,5.0,SE,4.6,-,N/A,,Overcast,130,2012-12-28 13:15:00
7:35 AM,30.2,26.6,86,30.08,5.0,SE,3.5,-,N/A,,Overcast,140,2012-12-28 13:35:00
7:55 AM,30.2,26.6,86,30.08,5.0,SE,3.5,-,N/A,,Overcast,130,2012-12-28 13:55:00
8:15 AM,30.2,26.6,86,30.08,5.0,SE,3.5,-,N/A,,Overcast,130,2012-12-28 14:15:00
8:35 AM,30.2,28.4,93,30.09,5.0,SE,4.6,-,N/A,,Overcast,140,2012-12-28 14:35:00
8:55 AM,30.2,28.4,93,30.07,7.0,ESE,5.8,-,N/A,,Overcast,120,2012-12-28 14:55:00
9:15 AM,30.2,28.4,93,30.07,7.0,ESE,4.6,-,N/A,,Mostly Cloudy,120,2012-12-28 15:15:00
10:55 AM,33.8,28.4,81,30.04,10.0,SSE,8.1,-,N/A,,Clear,150,2012-12-28 16:55:00
11:15 AM,33.8,28.4,81,30.03,10.0,SSE,3.5,-,N/A,,Clear,150,2012-12-28 17:15:00
11:35 AM,33.8,30.2,87,30.02,10.0,SSE,4.6,-,N/A,,Clear,150,2012-12-28 17:35:00
11:55 AM,33.8,30.2,87,30.01,10.0,SSE,3.5,-,N/A,,Clear,150,2012-12-28 17:55:00
12:15 PM,33.8,30.2,87,29.99,10.0,SSE,6.9,-,N/A,,Clear,150,2012-12-28 18:15:00
12:35 PM,33.8,30.2,87,29.96,10.0,SE,4.6,-,N/A,,Clear,130,2012-12-28 18:35:00
12:55 PM,35.6,30.2,81,29.94,10.0,SE,5.8,-,N/A,,Clear,130,2012-12-28 18:55:00
1:15 PM,35.6,30.2,81,29.95,10.0,SE,5.8,-,N/A,,Scattered Clouds,130,2012-12-28 19:15:00
1:35 PM,35.6,30.2,81,29.94,10.0,ESE,4.6,-,N/A,,Mostly Cloudy,120,2012-12-28 19:35:00
1:55 PM,35.6,30.2,81,29.94,10.0,East,4.6,-,N/A,,Overcast,90,2012-12-28 19:55:00
2:15 PM,35.6,30.2,81,29.93,10.0,ESE,4.6,-,N/A,,Overcast,110,2012-12-28 20:15:00
2:35 PM,35.6,30.2,81,29.94,10.0,ESE,3.5,-,N/A,,Overcast,110,2012-12-28 20:35:00
2:55 PM,35.6,30.2,81,29.93,10.0,SE,6.9,-,N/A,,Overcast,130,2012-12-28 20:55:00
3:15 PM,35.6,30.2,81,29.92,10.0,ESE,3.5,-,N/A,,Overcast,120,2012-12-28 21:15:00
3:35 PM,35.6,30.2,81,29.92,10.0,ESE,3.5,-,N/A,,Scattered Clouds,120,2012-12-28 21:35:00
3:55 PM,35.6,30.2,81,29.92,10.0,East,3.5,-,N/A,,Mostly Cloudy,100,2012-12-28 21:55:00
4:15 PM,35.6,30.2,81,29.91,10.0,East,4.6,-,N/A,,Mostly Cloudy,80,2012-12-28 22:15:00
4:35 PM,33.8,30.2,87,29.90,10.0,ENE,4.6,-,N/A,,Mostly Cloudy,60,2012-12-28 22:35:00
4:55 PM,33.8,30.2,87,29.90,10.0,ENE,3.5,-,N/A,,Overcast,60,2012-12-28 22:55:00
5:15 PM,33.8,30.2,87,29.90,10.0,East,4.6,-,N/A,,Overcast,80,2012-12-28 23:15:00
5:35 PM,33.8,30.2,87,29.90,1.5,Calm,Calm,-,N/A,Rain,Rain,0,2012-12-28 23:35:00
5:55 PM,33.8,30.2,87,29.90,1.8,NE,3.5,-,N/A,Snow,Light Snow,50,2012-12-28 23:55:00
6:15 PM,33.8,30.2,87,29.90,1.2,ENE,3.5,-,N/A,Snow,Light Snow,60,2012-12-29 00:15:00
6:35 PM,32.0,30.2,93,29.89,1.0,ENE,3.5,-,0.01,Snow,Light Snow,60,2012-12-29 00:35:00
6:55 PM,32.0,30.2,93,29.89,1.0,Calm,Calm,-,0.01,Snow,Light Snow,0,2012-12-29 00:55:00
7:15 PM,32.0,30.2,93,29.88,0.8,NNE,3.5,-,0.01,Snow,Light Snow,30,2012-12-29 01:15:00
7:35 PM,32.0,30.2,93,29.89,1.0,Calm,Calm,-,0.02,Snow,Light Snow,0,2012-12-29 01:35:00
7:55 PM,32.0,30.2,93,29.88,0.5,Calm,Calm,-,0.04,Snow,Light Snow,0,2012-12-29 01:55:00
8:15 PM,32.0,30.2,93,29.88,0.5,Calm,Calm,-,0.01,Snow,Snow,0,2012-12-29 02:15:00
8:35 PM,32.0,30.2,93,29.87,0.5,Calm,Calm,-,0.03,Snow,Snow,0,2012-12-29 02:35:00
8:55 PM,32.0,30.2,93,29.87,0.5,Calm,Calm,-,0.04,Snow,Snow,0,2012-12-29 02:55:00
9:15 PM,32.0,30.2,93,29.86,0.5,North,3.5,-,0.02,Snow,Light Snow,360,2012-12-29 03:15:00
9:35 PM,32.0,30.2,93,29.86,0.5,Calm,Calm,-,0.04,Snow,Snow,0,2012-12-29 03:35:00
9:55 PM,32.0,30.2,93,29.86,0.2,Calm,Calm,-,0.05,Snow,Snow,0,2012-12-29 03:55:00
10:15 PM,32.0,30.2,93,29.86,0.5,Calm,Calm,-,0.03,Snow,Snow,0,2012-12-29 04:15:00
10:35 PM,32.0,30.2,93,29.86,0.5,NNW,3.5,-,0.04,Snow,Snow,340,2012-12-29 04:35:00
10:55 PM,32.0,30.2,93,29.85,0.5,Calm,Calm,-,0.06,Snow,Snow,0,2012-12-29 04:55:00
11:15 PM,32.0,30.2,93,29.85,0.5,Calm,Calm,-,0.02,Snow,Light Snow,0,2012-12-29 05:15:00
11:35 PM,30.2,30.2,100,29.85,0.5,Calm,Calm,-,0.05,Snow,Snow,0,2012-12-29 05:35:00
11:55 PM,30.2,30.2,100,29.85,0.5,Calm,Calm,-,0.07,Snow,Light Snow,0,2012-12-29 05:55:00